Overview Statistics Trail Chart Weather Telemetry Raw packets
 

This is the latest recevied weather packets stored in our database for station/object LU3GHF-13. If no packets are shown the sender has not sent any weather packets the latest 10 day(s).

<< 1 2 3 4 5 >>
Time Temp. Humidity Pressure Rain* Wind** Luminosity Snow
1788630401 25.56° C 36% 1012.8 hPa - - - -
1788629787 23.89° C 36% 1013.1 hPa - - - -
1788629137 25° C 35% 1013.2 hPa - - - -
1788628511 24.44° C 37% 1013.2 hPa - - - -
1788627853 24.44° C 37% 1013.4 hPa - - - -
1788627217 24.44° C 38% 1013.5 hPa - - - -
1788626604 25.56° C 37% 1013.5 hPa - - - -
1788625981 23.89° C 39% 1013.7 hPa - - - -
1788625329 23.33° C 39% 1013.7 hPa - - - -
1788624697 22.78° C 40% 1014 hPa - - - -
1788624086 22.78° C 42% 1014.2 hPa - - - -
1788622869 21.67° C 45% 1014.7 hPa - - - -
1788622252 21.11° C 50% 1014.7 hPa - - - -
1788621600 21.67° C 48% 1014.6 hPa - - - -
1788620972 21.11° C 51% 1014.7 hPa - - - -
1788620319 20.56° C 52% 1014.7 hPa - - - -
1788619691 20° C 53% 1014.9 hPa - - - -
1788619047 20.56° C 53% 1014.9 hPa - - - -
1788618423 20° C 53% 1014.9 hPa - - - -
1788617793 19.44° C 54% 1014.9 hPa - - - -
1788617186 19.44° C 57% 1015.2 hPa - - - -
1788616566 18.89° C 58% 1015 hPa - - - -
1788615925 18.33° C 60% 1015 hPa - - - -
1788615275 18.33° C 60% 1014.8 hPa - - - -
1788614621 18.33° C 61% 1015 hPa - - - -

* Rain since midnight (hover to see other rain measurements)
** Current wind speed in m/s (hover to see current wind gust speed)